Location: Clinton NY
(43.0598°N, 75.3602°W)
Time: 15:47:29
(UTC-04:00)

Iridium 11 - Visible Passes

Search period start: 26 May 2018 00:00
Search period end: 05 June 2018 00:00
Orbit: 761 x 765 km, 86.4° (Epoch: 26 May)

Date Brightness Start Highest point End Pass type
(mag) Time Alt. Az. Time Alt. Az. Time Alt. Az.
26 May 6.7 03:17:19 10° NNE 03:22:08 39° E 03:26:55 10° SSE visible
27 May 7.7 02:40:15 10° NNE 02:44:01 20° ENE 02:47:47 10° ESE visible
27 May 5.8 04:19:47 10° NNW 04:24:43 48° W 04:29:38 10° SSW visible
28 May 5.5 03:41:48 10° N 03:46:58 84° E 03:52:04 10° S visible
29 May 6.6 03:04:11 10° N 03:09:03 42° E 03:13:55 10° SSE visible
29 May 6.8 04:45:13 10° NNW 04:49:10 23° W 04:53:08 10° SW visible
30 May 7.6 02:27:02 10° NNE 02:30:59 22° ENE 02:34:54 10° SE visible
30 May 5.9 04:06:43 10° NNW 04:11:36 45° W 04:16:02 12° SSW visible
31 May 8.2 01:51:22 10° NE 01:52:42 11° ENE 01:54:02 10° E visible
31 May 5.4 03:28:42 10° N 03:33:53 89° W 03:37:58 16° S visible
01 Jun 6.4 02:51:03 10° N 02:55:59 45° E 02:59:56 15° SSE visible
01 Jun 6.9 04:32:14 10° NNW 04:36:02 21° W 04:39:50 10° SW visible
02 Jun 7.4 02:13:49 10° NNE 02:17:55 23° ENE 02:21:56 10° SE visible
02 Jun 6.0 03:53:41 10° NNW 03:58:30 41° W 04:02:04 17° SSW visible
03 Jun 8.1 01:37:46 10° NE 01:39:41 12° ENE 01:41:34 10° E visible
03 Jun 5.4 03:15:37 10° N 03:20:47 83° W 03:24:05 23° S visible
04 Jun 6.2 02:37:54 10° N 02:42:55 49° E 02:46:06 21° SSE visible
04 Jun 7.0 04:19:17 10° NW 04:22:54 20° W 04:26:15 11° WSW visible
